Location: Shenandoah County Park
(38.9356°N, 78.4524°W)
Time: 06:03:36
(UTC-04:00)

Vanguard 1 Rocket - Pass Details

Date: 15 February 2023
Orbit: 652 x 4223 km, 34.3° (Epoch: 26 March)

Event Time Altitude Azimuth Distance (km) Brightness Sun altitude
Rises 12:44:48 0° 271° (W) 3,969 10.7 38.3°
Reaches altitude 10° 12:46:59 10° 268° (W) 3,277 10.4 38.3°
Maximum altitude 12:55:20 64° 189° (S) 2,105 10.7 38.1°
Drops below altitude 10° 13:12:03 10° 113° (ESE) 6,179 11.8 37.5°
Sets 13:18:01 0° 111° (ESE) 7,682 12.2 37.2°
